Wetbulb
51.41 45.58 42.97 45.14 46.48 46.33 45.12 44.85 44.46 47.19 49.89 48.47 47.62 48.06 49.75 52.50 52.75 52.91 54.13 55.22 56.12 56.66 58.28 58.33 59.14 60.25 63.36 70.89 76.73 76.52 73.62 73.46 73.33 74.57 73.34 73.93 73.82 70.91 69.55 69.98 67.77 69.77 68.23 66.74
47.67 43.25 47.46 48.41 47.97 46.04 44.86 43.41 44.37 47.85 49.67 49.31 48.45 47.82 50.64 52.05 52.73 53.73 53.86 55.33 56.57 57.32 57.91 59.38 60.27 61.79 68.46 75.90 76.33 76.87 72.81 73.39 72.95 72.63 69.55 68.41 70.18 71.20 69.55 67.35 69.16 68.98 67.30 67.10
44.55 46.63 49.33 47.58 46.04 44.90 44.53 43.06 44.02 45.56 48.27 48.99 47.81 45.94 48.65 51.46 52.93 53.90 54.36 55.05 56.36 56.97 58.07 59.39 61.11 70.59 73.09 74.36 74.94 74.56 72.60 71.06 70.06 68.49 69.04 68.63 66.53 68.83 68.10 65.90 66.43 68.16 67.32 67.01
45.95 49.28 47.54 45.87 44.85 45.76 42.13 46.00 45.72 46.41 45.08 41.56 48.02 39.07 47.69 49.89 51.17 52.30 53.41 54.43 55.78 58.02 58.97 61.96 64.89 69.04 71.61 73.82 73.59 74.59 73.99 70.91 68.96 68.14 67.98 66.56 67.77 65.43 65.48 67.05 66.81 66.74 68.24 66.74
45.20 46.40 46.35 44.93 45.15 46.73 43.71 47.13 45.90 46.02 44.97 44.56 44.70 42.06 46.02 50.93 49.19 50.75 53.02 54.40 56.78 57.38 59.06 60.01 63.54 65.72 70.26 71.77 72.20 73.95 74.52 72.60 69.87 69.03 67.22 66.57 64.99 67.42 67.54 66.56 67.17 68.74 68.55 67.04
47.49 51.23 48.75 47.82 48.00 46.85 47.95 46.79 47.19 46.71 44.45 39.11 43.11 42.69 43.28 46.42 49.70 51.32 53.14 54.71 56.78 57.05 58.10 60.39 62.81 64.68 64.79 68.60 70.29 73.44 73.57 71.55 69.62 67.18 67.77 65.45 64.00 65.55 65.55 65.07 68.77 69.77 68.63 67.45
45.73 46.18 49.40 49.75 46.14 47.91 46.68 44.55 38.10 36.90 37.60 37.42 44.96 42.59 45.29 50.73 51.83 52.47 53.45 55.32 56.82 57.29 59.19 60.51 61.94 62.10 64.68 65.49 67.17 70.57 73.63 72.45 71.71 69.56 68.54 68.02 68.28 70.43 69.93 68.00 69.99 70.82 70.20 69.71
40.79 39.08 46.77 49.61 47.18 45.06 45.09 44.35 38.62 32.83 34.99 38.18 44.79 40.96 44.82 51.98 53.37 54.83 55.06 55.43 56.38 57.10 59.02 59.57 61.63 62.73 62.36 64.85 66.18 66.52 68.84 69.04 71.40 72.57 71.46 71.05 70.21 70.25 72.67 72.36 71.40 70.97 70.02 71.20
40.29 41.07 48.41 48.64 49.08 48.32 44.97 42.04 47.25 42.33 43.17 38.91 42.19 45.90 50.21 52.40 52.47 53.31 53.58 55.05 56.71 58.14 59.51 59.92 62.22 63.88 65.66 67.19 68.65 69.21 69.20 70.19 70.27 70.78 72.44 73.23 73.74 73.87 73.14 72.63 73.03 72.13 70.76 70.64
44.11 40.13 46.91 48.31 49.60 49.27 47.10 48.21 40.95 42.26 34.09 33.41 40.06 42.30 42.75 49.16 50.39 51.93 52.62 54.85 56.59 57.50 58.22 59.84 61.62 64.48 65.94 66.92 68.17 69.03 69.88 67.99 69.14 70.76 71.23 71.24 72.45 72.20 73.19 72.60 71.32 69.42 68.51 68.32
46.04 43.16 44.35 47.54 45.77 43.93 44.46 43.66 44.91 44.57 42.50 37.32 35.63 39.06 50.05 50.14 52.38 52.64 52.45 55.39 56.26 56.32 57.21 58.43 60.33 61.97 63.12 64.26 64.56 65.12 66.25 66.61 67.99 69.69 70.79 70.69 70.38 69.26 67.34 66.90 67.45 65.34 66.84 67.17
47.84 44.07 38.33 42.89 48.88 50.26 48.39 44.95 44.86 40.75 38.60 42.29 40.82 38.41 51.27 52.00 53.59 53.49 51.10 52.10 56.24 57.21 57.53 57.72 58.18 60.13 60.47 61.68 62.25 63.06 62.97 62.20 62.23 64.75 63.63 63.28 65.26 66.63 66.52 67.22 67.89 68.33 67.73 66.87
49.56 43.65 37.94 40.30 44.82 48.42 46.13 46.79 47.03 46.84 45.75 40.81 38.01 40.61 51.53 52.45 53.13 53.62 51.23 52.39 55.72 56.50 57.38 58.54 58.02 58.58 58.92 60.09 60.44 60.14 60.52 61.11 62.38 61.90 62.37 61.89 61.99 62.27 63.04 62.94 63.47 64.31 64.18 65.01
50.64 46.20 42.68 37.12 40.67 44.76 43.26 45.32 47.18 44.81 41.71 39.81 40.20 41.86 46.68 47.76 48.37 49.67 54.69 55.54 55.85 57.01 57.26 57.73 57.88 58.57 59.01 58.51 59.28 59.09 59.47 59.99 60.41 60.89 61.12 60.88 61.36 62.04 61.57 61.17 61.03 61.74 62.63 62.60
48.63 40.43 42.61 44.36 43.87 43.88 43.54 42.99 44.94 42.70 42.93 38.99 41.87 44.02 46.35 45.91 47.02 48.57 52.51 52.32 52.16 52.59 53.38 55.01 57.57 58.18 58.23 59.09 57.25 58.14 57.05 56.99 57.63 57.93 59.15 59.20 59.85 60.87 60.58 60.21 60.13 60.43 61.27 60.55
48.83 41.01 44.10 40.32 44.63 43.35 39.90 42.63 44.55 44.88 45.48 45.99 46.13 44.98 49.90 49.78 50.24 50.77 51.47 52.09 51.99 52.56 53.19 54.74 56.66 56.32 55.72 55.73 55.99 56.24 56.09 55.72 56.86 56.26 55.42 56.96 57.35 57.73 58.48 57.83 58.13 59.63 59.12 58.87
45.13 43.83 40.91 37.22 43.64 42.63 37.43 40.30 43.36 44.46 46.79 47.05 42.86 46.82 50.61 49.51 49.85 49.85 50.64 51.53 51.42 52.63 53.50 54.00 54.35 54.51 55.03 54.76 55.06 54.53 54.86 55.73 55.38 55.18 54.88 55.10 56.01 55.64 56.69 56.62 56.21 56.35 56.67 57.03
43.75 42.76 42.37 38.20 39.89 30.27 42.45 47.60 46.43 44.82 45.18 46.52 46.58 49.00 49.82 49.96 50.87 51.34 51.86 51.23 51.17 51.86 52.30 52.80 53.22 53.63 54.32 54.74 55.31 54.99 54.54 54.70 54.27 54.08 54.19 54.48 54.13 53.80 54.06 54.13 53.85 55.00 55.14 54.49
46.38 44.47 39.82 36.07 36.16 40.06 42.59 45.20 45.24 43.85 43.25 48.97 48.21 49.18 49.88 50.51 50.67 49.56 51.79 51.87 51.71 52.17 52.82 52.93 53.58 53.60 54.11 54.16 54.88 53.89 53.88 53.81 53.21 52.54 52.98 53.04 52.54 52.02 51.83 51.21 52.06 52.84 52.45 52.16
44.84 45.27 42.02 38.28 33.14 31.10 42.59 46.98 49.44 48.23 40.51 49.36 49.89 48.62 48.65 49.40 43.10 46.02 51.17 51.49 51.17 51.90 52.27 52.35 52.98 53.54 53.95 54.41 55.30 53.77 52.48 51.89 51.26 51.60 51.77 51.85 51.76 51.06 50.44 50.99 50.84 51.35 51.60 51.16
39.42 40.92 36.93 36.86 35.30 39.04 46.60 48.02 48.81 37.45 39.63 49.44 49.49 48.83 48.72 46.67 48.17 50.66 51.59 51.59 51.98 52.03 51.80 52.38 52.51 51.65 52.99 54.40 54.01 51.85 51.22 49.97 51.16 51.07 51.04 50.69 50.68 50.15 50.61 51.18 51.36 49.84 48.89 48.81
38.10 36.81 36.52 39.21 35.36 31.87 48.45 47.01 42.00 47.36 50.27 47.98 48.53 49.05 48.62 48.94 49.52 50.04 50.41 50.43 50.91 50.74 50.99 51.49 50.96 51.13 52.37 52.00 50.51 49.25 48.94 50.62 50.41 50.02 49.49 49.33 49.51 49.43 48.37 47.42 47.05 46.41 45.73 44.71
38.38 41.94 40.11 41.32 40.51 49.02 50.24 49.06 51.02 50.87 48.10 48.70 47.66 48.07 48.55 47.99 48.59 49.06 48.84 49.30 49.43 49.24 49.09 49.34 48.47 48.99 50.17 49.90 50.04 48.45 48.93 49.77 48.92 48.48 47.90 46.68 44.84 45.00 44.54 42.56 42.21 41.26 41.71 40.43
44.79 47.98 43.08 43.09 46.00 47.06 48.39 50.42 50.30 50.06 48.35 48.77 49.49 48.83 48.38 47.40 48.00 47.62 47.61 47.14 46.89 47.37 47.06 47.65 47.06 46.43 46.94 47.81 47.72 48.08 47.70 45.46 43.82 43.08 42.08 42.00 40.73 40.81 40.46 39.27 39.33 37.78 38.12 38.57
44.47 46.15 42.76 42.35 46.38 47.09 47.99 48.02 48.37 48.00 48.59 48.14 48.87 48.38 47.27 46.74 45.93 45.78 45.10 45.28 45.54 44.94 44.89 44.69 43.87 43.64 43.95 44.83 44.55 44.67 43.12 41.40 39.44 38.70 38.25 37.62 37.59 36.62 36.01 37.20 37.27 37.43 38.25 38.26
46.11 43.89 41.98 40.95 46.80 46.45 46.43 47.39 48.06 46.97 46.24 46.64 46.05 45.32 45.86 45.19 44.20 44.69 44.67 44.88 43.61 42.42 42.31 41.76 41.56 40.97 40.77 40.84 40.58 39.97 39.69 37.80 35.82 35.11 35.45 35.15 34.62 35.35 35.30 35.87 36.37 38.41 38.28 38.42
MSLP
1002.83 1002.72 1000.99 1000.90 1000.73 1000.25 999.36 998.25 997.39 996.78 996.03 996.71 997.41 997.29 997.26 996.87 996.72 996.47 996.14 996.22 996.59 996.84 996.83 997.37 998.22 998.83 999.10 999.19 999.39 1001.07 1002.80 1004.23 1004.60 1005.15 1005.59 1006.92 1007.52 1008.34 1008.41 1008.66 1009.70 1010.74 1011.91 1011.04
1002.37 1000.89 1000.86 1000.64 1000.16 999.88 999.18 998.19 996.97 996.31 995.77 996.27 996.81 997.08 996.84 996.51 996.13 995.96 995.78 995.75 995.82 995.92 996.13 996.64 997.37 998.09 998.81 999.51 1000.13 1000.89 1002.47 1003.45 1004.98 1005.53 1006.90 1007.70 1008.55 1008.60 1008.52 1009.16 1010.27 1011.06 1011.43 1011.80
1000.44 999.86 1000.38 999.78 999.26 998.84 998.37 997.83 997.15 996.65 996.36 996.56 996.92 996.95 996.43 995.90 995.78 995.50 995.35 995.82 995.69 995.51 995.72 996.32 997.04 997.87 998.78 999.90 1000.77 1001.06 1002.13 1003.51 1004.75 1005.37 1006.42 1007.03 1008.39 1009.06 1009.93 1010.00 1009.86 1010.07 1011.05 1011.57
1000.19 999.34 998.88 998.87 998.19 998.13 997.34 997.52 997.34 997.09 997.21 996.77 997.04 996.71 995.80 995.31 994.91 994.95 995.24 995.47 995.59 995.76 995.67 996.15 997.16 997.78 998.49 999.47 1000.17 1000.87 1001.29 1002.20 1003.62 1003.44 1005.46 1005.94 1006.00 1007.27 1007.94 1007.21 1009.26 1009.11 1008.63 1008.20
999.12 998.99 998.28 997.59 997.52 997.30 996.96 997.11 997.54 997.67 997.47 997.60 997.00 996.51 994.90 993.52 994.14 994.62 994.90 995.34 995.84 996.30 996.49 996.96 997.34 998.30 999.14 999.61 1000.46 1001.10 1001.63 1002.38 1002.91 1003.84 1003.58 1004.40 1004.83 1004.87 1005.64 1005.58 1005.76 1007.77 1007.94 1009.19
999.60 998.95 997.95 997.52 997.10 997.17 997.15 997.14 997.24 997.63 997.81 997.40 997.04 996.33 994.96 994.25 993.94 994.23 994.48 995.28 996.13 996.68 996.87 997.47 998.01 998.52 998.89 999.44 1000.09 1001.17 1002.04 1002.58 1003.14 1003.55 1003.69 1003.93 1004.12 1004.41 1005.37 1005.32 1004.71 1005.96 1007.27 1008.15
999.30 998.92 998.30 997.45 996.93 997.13 996.95 997.26 997.42 997.72 997.27 996.33 996.38 995.82 994.84 993.96 993.34 993.63 994.42 995.48 996.41 996.90 997.10 997.72 998.34 998.95 999.18 999.22 999.53 1000.48 1001.66 1002.23 1002.59 1003.15 1003.16 1003.21 1003.45 1003.87 1004.57 1004.83 1005.20 1005.64 1006.53 1007.00
998.74 998.12 997.93 996.73 996.75 996.55 996.80 997.14 997.17 997.15 996.84 996.50 995.86 994.75 993.93 993.90 993.88 994.71 995.38 995.99 996.91 997.32 997.73 998.54 999.25 999.78 999.75 999.96 1000.10 1000.35 1000.74 1001.26 1001.90 1002.53 1002.68 1002.82 1002.80 1003.15 1003.54 1004.02 1004.69 1005.43 1005.57 1005.52
998.75 997.94 996.57 996.27 996.12 996.35 996.50 996.79 997.59 997.21 997.06 998.04 996.13 995.15 994.44 994.37 994.79 995.28 996.09 996.87 997.45 998.10 998.58 999.23 999.95 1000.56 1000.75 1001.06 1001.20 1001.11 1000.98 1001.01 1001.47 1002.09 1002.42 1002.55 1002.47 1002.54 1003.16 1003.70 1003.92 1004.29 1004.29 1004.89
1000.30 998.72 997.24 996.81 996.75 996.20 996.24 996.84 997.40 997.74 998.25 998.22 997.11 996.07 996.16 995.89 996.04 996.35 996.86 997.49 998.13 998.61 998.82 999.76 1000.34 1000.79 1001.16 1001.55 1001.85 1001.77 1001.62 1001.93 1002.10 1002.02 1002.72 1002.91 1002.78 1003.26 1003.05 1003.31 1004.04 1004.02 1003.57 1004.40
1000.66 1001.20 998.86 997.62 996.98 996.55 996.94 997.38 998.02 998.61 998.72 998.42 998.76 999.04 998.69 998.02 998.34 998.25 998.97 998.51 998.55 998.71 999.07 999.85 1000.47 1001.09 1001.53 1001.91 1002.35 1002.77 1002.49 1002.55 1002.61 1003.02 1003.20 1003.27 1003.47 1003.72 1004.07 1003.61 1004.78 1004.84 1002.67 1004.29
1000.16 1001.61 1001.22 999.38 997.59 997.78 997.87 997.27 998.19 998.82 999.58 999.36 1000.15 1001.55 1000.90 1000.68 1000.10 1000.17 1001.08 1001.64 998.88 998.89 999.44 1000.27 1000.71 1001.22 1001.89 1002.33 1002.93 1003.43 1003.86 1003.84 1003.93 1004.00 1004.11 1004.33 1004.13 1004.00 1003.96 1004.09 1004.05 1004.24 1004.99 1004.98
999.96 1000.59 1001.06 1000.66 999.88 998.83 998.78 997.99 998.56 999.55 1000.18 1000.51 1001.56 1002.50 1002.69 1001.72 1001.63 1001.70 1001.79 1003.02 1000.46 999.76 999.91 1000.63 1001.39 1002.08 1002.54 1003.02 1003.52 1003.92 1004.50 1004.59 1004.49 1004.62 1004.89 1005.05 1005.23 1005.18 1004.92 1005.06 1005.18 1005.22 1005.26 1005.08
1000.86 1000.74 1000.31 1000.59 1000.40 1000.29 999.39 999.19 999.08 999.99 1000.75 1001.56 1001.64 1003.04 1002.95 1003.26 1003.36 1002.63 1001.78 1000.64 999.62 1000.16 1000.54 1000.85 1001.22 1002.07 1002.86 1003.55 1004.24 1004.36 1004.93 1005.42 1005.34 1005.32 1005.38 1005.67 1005.84 1005.91 1006.00 1006.10 1006.13 1006.09 1006.20 1006.53
1000.86 1001.02 1001.40 1000.71 1000.59 1000.50 1000.49 1000.30 1000.33 1000.55 999.77 1001.00 1001.18 1001.66 1002.69 1003.80 1004.32 1004.98 1001.90 1000.92 1000.70 1000.63 1000.80 1001.29 1001.80 1002.85 1004.07 1004.51 1005.02 1005.74 1006.24 1006.72 1006.70 1006.38 1006.24 1006.28 1006.53 1006.47 1006.59 1006.76 1006.96 1007.08 1007.03 1006.97
1001.26 1001.50 1000.19 1000.79 1000.92 1000.85 1000.64 1000.27 1000.27 1000.17 1000.16 999.09 999.93 1000.54 1001.77 1002.29 1002.66 1002.75 1002.32 1001.82 1001.42 1001.69 1002.00 1002.21 1003.07 1003.99 1004.97 1005.70 1006.28 1006.69 1007.20 1007.51 1007.28 1007.26 1006.99 1006.75 1006.78 1006.92 1006.97 1006.99 1007.03 1007.04 1007.25 1007.32
1000.04 999.69 999.82 999.83 999.50 1000.01 1000.10 999.47 999.01 999.99 999.83 998.81 999.25 999.60 1000.39 1001.22 1001.87 1002.34 1002.29 1002.38 1002.81 1003.25 1003.62 1003.96 1004.67 1005.49 1006.16 1006.71 1007.40 1007.74 1007.90 1007.80 1007.77 1007.70 1007.35 1007.02 1006.92 1006.80 1006.85 1006.90 1007.21 1007.26 1007.36 1007.51
1000.19 1000.02 1000.09 999.92 999.91 999.83 999.40 999.02 998.72 998.38 998.05 998.28 998.76 999.71 1000.55 1001.26 1002.08 1002.64 1003.43 1004.11 1004.58 1004.98 1005.23 1005.57 1005.96 1006.51 1006.98 1007.36 1007.59 1007.98 1008.19 1008.27 1008.16 1007.92 1007.55 1007.27 1007.10 1007.07 1007.20 1007.35 1007.43 1007.43 1007.47 1007.55
1000.86 1000.53 1000.75 1000.85 1000.32 999.69 999.37 999.54 999.39 999.28 999.46 999.61 1000.00 1000.97 1001.75 1002.66 1003.08 1004.26 1004.82 1005.59 1005.82 1006.05 1006.23 1006.38 1006.62 1006.98 1007.33 1007.65 1007.83 1008.14 1008.49 1008.57 1008.47 1008.20 1007.96 1007.81 1007.76 1007.76 1007.77 1007.79 1007.83 1007.81 1007.66 1007.40
1001.35 1001.45 1001.65 1001.76 1001.56 1000.46 1000.87 1000.68 1000.50 1000.46 1001.15 1001.57 1001.54 1002.51 1003.00 1003.35 1003.76 1005.18 1005.76 1005.97 1006.40 1006.72 1006.97 1007.15 1007.35 1007.49 1007.68 1007.90 1008.06 1008.36 1008.60 1008.74 1008.70 1008.53 1008.40 1008.38 1008.35 1008.24 1008.11 1008.04 1007.93 1007.75 1007.53 1007.29
1001.67 1002.01 1002.53 1002.34 1002.22 1001.56 1001.78 1001.74 1001.69 1001.86 1003.70 1003.15 1003.46 1003.57 1004.02 1004.30 1005.19 1005.86 1006.15 1006.45 1006.92 1007.13 1007.29 1007.40 1007.61 1007.68 1007.72 1007.85 1008.15 1008.46 1008.72 1008.86 1008.86 1008.83 1008.80 1008.67 1008.54 1008.46 1008.28 1007.98 1007.84 1007.92 1007.81 1007.67
1002.08 1002.66 1002.87 1002.73 1002.64 1002.73 1002.48 1002.37 1002.85 1004.22 1004.28 1004.69 1004.77 1004.94 1005.08 1005.38 1005.56 1005.87 1006.03 1006.29 1006.46 1006.64 1006.93 1007.05 1007.26 1007.44 1007.73 1008.15 1008.53 1008.75 1008.84 1008.95 1009.08 1009.11 1009.04 1008.97 1008.87 1008.68 1008.59 1008.62 1008.52 1008.51 1008.43 1008.20
1001.68 1001.92 1002.60 1002.70 1002.79 1003.07 1003.35 1004.00 1004.47 1004.80 1005.28 1005.42 1005.82 1005.90 1005.93 1006.04 1006.11 1006.26 1006.35 1006.44 1006.67 1007.03 1007.31 1007.55 1007.77 1007.91 1008.20 1008.65 1008.96 1009.14 1009.15 1009.13 1009.17 1009.26 1009.40 1009.65 1009.84 1009.72 1009.66 1009.51 1009.26 1009.24 1009.04 1008.66
1001.49 1001.96 1002.43 1002.64 1002.81 1003.50 1003.94 1004.33 1004.81 1005.39 1005.72 1006.01 1006.04 1006.24 1006.42 1006.53 1006.62 1006.71 1006.91 1007.24 1007.57 1007.85 1008.07 1008.32 1008.53 1008.66 1008.88 1009.23 1009.56 1009.67 1009.62 1009.89 1010.19 1010.32 1010.57 1010.70 1010.68 1010.48 1010.37 1010.34 1009.92 1009.60 1009.17 1008.68
1002.33 1002.03 1002.10 1002.67 1003.40 1003.91 1004.06 1004.72 1005.14 1005.52 1006.00 1006.29 1006.53 1006.78 1007.02 1007.24 1007.31 1007.59 1007.95 1008.18 1008.39 1008.98 1009.35 1009.73 1009.95 1010.00 1010.10 1010.23 1010.45 1010.60 1010.83 1011.21 1011.41 1011.50 1011.50 1011.49 1011.36 1011.23 1010.84 1010.38 1010.07 1009.68 1009.21 1008.90
1001.79 1002.09 1002.45 1003.10 1003.98 1004.50 1005.06 1005.55 1005.67 1006.03 1006.57 1007.03 1007.37 1007.67 1007.93 1008.03 1008.25 1008.43 1008.60 1009.19 1009.86 1010.30 1010.70 1010.91 1011.06 1011.14 1011.23 1011.33 1011.43 1011.78 1011.96 1012.36 1012.38 1012.24 1012.10 1012.01 1011.68 1011.12 1010.70 1010.21 1009.60 1009.09 1008.65 1008.20
Wind_Speed
21 17 22 25 25 19 21 22 20 15 19 16 15 17 17 14 15 12 12 10 10 11 11 17 19 16 14 9 9 15 16 20 18 4 6 3 3 4 4 4 10 10 7 4
20 25 24 23 24 24 22 24 19 15 16 15 12 15 15 16 13 12 11 6 8 11 10 8 13 18 9 11 8 8 15 15 8 7 6 4 3 3 2 2 8 8 7 4
26 18 26 25 23 24 24 22 19 16 7 10 13 13 16 15 12 16 5 6 8 4 7 9 11 12 11 12 9 8 13 14 13 13 9 8 2 3 3 1 5 9 7 6
23 27 25 24 26 23 22 19 19 14 14 14 16 14 17 19 19 11 9 6 4 7 6 8 12 12 14 16 14 16 16 17 14 16 14 17 12 14 11 11 9 11 19 20
23 22 21 22 26 23 18 17 18 17 14 13 17 11 13 11 15 9 12 6 8 3 7 12 6 5 8 10 13 14 16 16 17 17 13 13 11 12 11 13 17 16 14 18
23 20 19 19 21 17 18 18 18 18 15 16 19 17 12 9 12 14 14 13 10 5 5 7 9 5 4 11 16 15 14 15 15 14 13 14 15 11 6 11 10 13 11 14
19 21 18 19 15 20 18 15 10 11 13 14 19 18 13 12 8 13 15 15 11 3 10 10 11 10 7 6 4 12 19 16 16 16 14 15 13 7 10 11 10 11 12 11
18 20 29 21 22 18 19 16 10 15 14 14 20 18 17 18 10 14 13 12 8 5 11 9 11 8 9 9 10 7 8 11 13 16 17 16 14 10 8 6 6 10 12 11
10 17 21 21 16 22 19 20 20 17 12 7 8 13 13 14 12 14 13 10 10 8 8 8 10 7 9 9 9 7 7 5 8 9 7 10 9 11 8 8 8 8 11 9
3 7 13 13 14 16 15 14 14 9 13 15 11 6 5 8 10 12 10 11 10 6 10 9 8 9 9 8 8 7 8 11 9 5 3 6 7 8 5 3 6 7 4 11
17 4 11 16 17 20 14 15 13 10 10 10 9 2 8 4 10 8 10 10 10 5 10 10 10 7 10 11 13 12 10 11 9 7 4 3 4 4 3 9 4 3 3 10
16 4 6 10 11 4 13 19 19 9 15 6 4 2 11 12 7 13 13 18 7 9 11 11 8 9 10 11 12 11 12 11 12 10 12 11 11 5 4 3 3 4 5 3
5 10 5 8 7 6 14 15 11 5 4 6 4 5 2 12 11 10 17 12 9 7 8 12 12 9 8 8 10 10 9 9 9 10 10 10 10 11 11 10 10 11 11 10
2 5 5 4 2 3 8 5 9 10 4 3 8 4 0 10 16 18 19 6 5 7 5 7 3 10 8 7 8 8 10 9 7 7 8 8 7 6 7 7 7 7 7 7
0 3 14 5 8 3 6 6 9 11 9 6 9 10 15 9 2 12 17 8 6 7 7 4 3 13 12 9 8 10 10 9 9 9 6 5 5 5 5 5 5 6 5 5
14 7 12 4 10 7 4 6 6 9 14 8 9 6 13 20 21 9 7 8 10 10 9 9 16 15 13 12 10 9 8 8 8 5 5 5 6 5 4 4 4 3 4 5
1 2 1 3 11 12 11 14 12 14 19 12 9 10 10 11 8 7 6 8 7 9 13 13 12 11 9 8 6 6 6 7 7 7 8 7 6 6 4 4 5 6 6 6
5 3 4 2 7 3 9 7 8 6 7 8 6 11 10 12 10 11 12 10 9 9 9 10 9 7 7 6 6 5 7 8 9 9 9 9 9 8 9 9 8 7 6 8
5 4 1 1 5 1 7 6 5 5 7 9 13 12 11 10 7 12 11 8 7 8 7 7 5 5 5 6 5 5 7 8 9 11 10 10 11 10 10 9 9 8 9 9
4 5 4 3 2 2 9 10 6 3 6 10 13 7 6 3 3 5 3 4 5 3 3 4 5 7 5 6 4 6 8 9 11 11 10 10 10 10 10 10 10 9 9 10
3 3 3 5 2 2 6 6 3 4 4 8 9 7 7 5 6 6 2 1 1 3 4 5 5 6 7 5 6 7 8 10 10 11 11 11 10 11 11 10 8 10 10 10
5 5 4 3 4 5 1 4 4 4 6 10 7 7 5 3 3 3 3 3 5 6 7 8 7 7 7 8 8 10 10 8 10 11 11 11 11 10 10 12 10 10 10 11
5 1 3 5 1 7 10 12 10 11 9 7 8 2 4 5 6 7 6 8 9 11 11 11 11 10 7 8 7 10 10 10 10 10 10 11 13 12 10 10 11 10 9 7
6 8 2 3 7 8 12 10 11 9 7 3 3 4 4 6 8 9 8 9 9 10 10 11 12 12 11 10 11 12 12 14 13 12 11 11 11 11 11 9 7 7 8 7
3 4 1 2 8 10 8 10 8 6 6 3 6 7 8 9 9 8 9 10 8 10 12 13 14 14 14 14 13 13 12 12 11 12 11 11 9 10 9 8 8 8 9 9
2 5 3 3 7 8 7 5 5 6 8 9 10 10 11 10 11 13 7 9 10 12 13 13 13 13 12 12 12 12 12 12 11 10 7 7 7 7 7 8 8 11 14 16
Wind_Direction
205 219 214 216 225 226 246 241 225 241 235 177 221 246 230 242 254 258 241 238 218 241 235 206 206 224 236 229 170 123 138 130 177 146 101 83 32 27 30 40 88 66 82 23
202 224 223 219 221 231 237 253 252 247 236 187 202 240 244 246 249 245 254 304 225 219 214 217 189 205 198 116 106 108 100 107 87 88 75 52 66 65 96 95 112 96 90 66
214 213 224 227 221 226 225 235 245 253 237 268 263 255 253 261 245 252 202 242 277 305 187 195 188 133 132 126 144 141 127 134 138 130 133 122 154 49 228 186 120 152 178 168
217 237 201 221 232 221 228 222 245 234 240 241 200 249 247 225 227 201 211 200 41 14 155 144 151 163 168 159 169 170 162 155 152 144 166 172 177 177 207 161 200 188 181 180
226 221 234 221 226 227 231 219 221 243 243 248 253 255 264 222 180 202 188 146 101 9 35 38 95 96 159 178 181 179 178 169 168 176 169 182 193 205 175 186 185 205 195 198
225 251 227 218 237 222 219 233 221 215 223 229 232 243 245 232 206 189 180 138 105 70 74 49 49 58 162 187 187 183 174 174 172 185 199 193 207 215 182 206 206 183 192 199
229 227 244 247 235 208 227 217 216 221 225 239 224 224 235 240 240 192 148 118 120 119 89 45 41 11 1 350 85 147 174 187 193 203 207 217 228 233 221 205 200 182 193 203
208 221 216 205 210 210 215 216 220 215 216 235 221 222 215 227 155 109 97 90 112 96 68 44 63 2 352 14 9 0 183 180 192 202 213 217 228 230 232 227 237 203 203 197
238 266 200 217 210 217 198 211 233 251 277 254 256 249 80 100 120 134 142 149 106 95 93 59 75 28 45 28 20 357 321 211 188 202 229 239 232 219 231 234 230 212 195 201
302 242 223 222 239 246 248 215 227 250 241 245 250 210 102 184 152 161 157 133 117 127 105 99 67 83 80 83 55 21 28 42 22 15 228 251 251 254 239 294 255 255 202 190
220 90 281 229 221 216 201 218 243 246 274 253 215 57 352 18 49 46 15 138 135 129 119 113 105 85 70 61 65 34 46 47 51 63 47 32 62 78 360 82 309 185 277 139
177 168 244 236 224 316 289 218 213 219 249 251 42 231 327 348 79 70 47 321 131 96 99 86 82 90 90 88 68 54 41 45 38 56 51 36 26 55 72 112 77 63 104 78
233 167 197 219 295 243 251 231 249 320 45 248 237 143 328 342 348 130 142 218 230 156 82 94 80 56 49 69 88 75 57 38 46 52 45 39 29 28 24 30 17 15 9 14
69 244 237 164 72 148 268 346 230 200 187 179 215 182 12 9 354 349 281 181 100 133 81 5 66 132 102 75 27 78 68 36 33 77 77 57 36 36 24 20 9 9 8 1
300 42 302 119 149 228 259 301 308 271 224 154 254 235 139 105 9 221 276 358 340 335 336 311 302 96 85 70 62 50 38 33 3 3 51 68 28 19 30 23 359 343 335 321
196 195 240 139 221 167 217 267 265 291 293 230 190 235 162 177 188 221 27 4 20 0 336 6 66 66 61 57 48 39 27 11 4 346 338 0 19 3 348 311 275 286 300 311
235 306 280 274 193 156 232 210 218 199 223 222 205 97 137 126 105 67 48 53 44 28 34 52 65 67 58 58 57 25 356 355 342 328 327 330 326 308 307 322 325 335 330 320
337 325 284 275 66 214 78 29 9 349 224 226 211 97 85 75 91 84 73 60 52 42 37 37 47 60 43 26 24 15 346 334 325 319 319 323 325 334 338 338 328 325 323 306
332 291 74 200 194 251 151 78 45 25 106 46 71 66 84 69 71 72 76 47 39 31 8 1 20 14 4 337 337 344 326 314 313 315 323 331 337 331 325 316 315 311 310 310
146 313 115 205 243 269 77 59 32 18 106 26 87 107 107 129 245 107 115 93 71 52 1 331 315 319 348 322 359 324 312 316 314 316 326 329 322 316 316 317 311 300 292 295
137 116 172 226 174 281 115 97 332 219 96 65 86 67 67 40 64 112 127 272 203 285 300 324 310 299 299 329 343 329 319 308 318 325 319 318 321 316 304 301 333 335 322 314
137 163 198 231 193 236 146 115 352 90 70 81 80 57 75 51 344 273 313 297 274 254 254 266 273 302 337 344 339 319 306 319 318 314 313 315 318 329 337 334 328 323 316 308
169 198 187 180 202 127 84 85 68 79 100 94 112 99 22 339 325 323 319 333 336 331 326 325 316 318 336 328 322 322 319 314 304 309 332 347 342 330 333 331 324 315 309 311
185 127 154 220 47 79 87 94 91 96 97 64 24 13 329 320 314 319 326 334 326 318 331 339 340 332 336 340 328 312 348 4 353 340 335 330 325 325 320 318 298 292 286 297
152 239 160 167 165 158 95 95 113 105 63 13 1 354 340 326 318 330 313 301 333 344 338 342 333 323 320 324 334 344 355 356 341 331 322 313 314 310 297 288 298 294 287 278
4 30 209 58 58 87 102 92 59 45 31 16 9 355 339 330 318 319 330 350 344 338 332 317 315 317 319 320 336 344 343 349 331 315 309 303 293 289 292 293 294 269 261 270